{"data":{"norad_id":62710,"epoch":"2026-09-22T20:23:46.626144Z","epoch_age_seconds":116561,"freshness":"FRESH","line1":"1 62710U 25009DF  26265.84984521  .00000534  00000+0  57080-4 0  9999","line2":"2 62710  97.6988 341.9348 0002892 176.9154 183.2084 14.92743533 91907","mean_motion":14.92743533,"eccentricity":0.0002892,"inclination_deg":97.6988,"raan_deg":341.9348,"arg_perigee_deg":176.9154,"mean_anomaly_deg":183.2084,"bstar":5.708e-5,"rev_number":9190,"period_min":96.46667147879,"perigee_km":587.37042679003,"apogee_km":591.40044176602,"semimajor_km":6967.522434278,"source":"CELESTRAK","updated_at":"2026-09-23T09:00:21.588436Z"}}